Year,Month,Day,Hour,Minute,Value (Times are PST for temperature in C)
2004,01,02,07,21,1.40
2004,01,02,07,22,1.40
2004,01,02,07,23,1.30
2004,01,02,07,24,1.40
2004,01,02,07,25,1.40
2004,01,02,07,26,1.40
2004,01,02,07,27,1.40
2004,01,02,07,28,1.30
2004,01,02,07,29,1.30
2004,01,02,07,30,1.30
2004,01,02,07,31,1.30
2004,01,02,07,32,1.30
2004,01,02,07,33,1.30
2004,01,02,07,34,1.20
2004,01,02,07,35,1.20
2004,01,02,07,36,1.20
2004,01,02,07,37,1.20
2004,01,02,07,38,1.10
2004,01,02,07,39,1.10
2004,01,02,07,40,1.10
2004,01,02,07,41,1.10
2004,01,02,07,42,1.10
2004,01,02,07,43,1.10
2004,01,02,07,44,1.10
2004,01,02,07,45,0.90
2004,01,02,07,46,0.90
2004,01,02,07,47,0.90
2004,01,02,07,48,0.90
2004,01,02,07,49,0.90
2004,01,02,07,50,0.90
2004,01,02,07,51,0.90
2004,01,02,07,52,0.90
2004,01,02,07,53,0.90
2004,01,02,07,54,0.80
2004,01,02,07,55,0.80
2004,01,02,07,56,0.80
2004,01,02,07,57,0.80
2004,01,02,07,58,0.80
2004,01,02,07,59,0.90
2004,01,02,08,00,1.00
2004,01,02,08,01,1.00
2004,01,02,08,02,1.00
2004,01,02,08,03,1.00
2004,01,02,08,04,1.00
2004,01,02,08,05,1.00
2004,01,02,08,06,1.00
2004,01,02,08,07,0.90
2004,01,02,08,08,0.90
2004,01,02,08,09,0.80
2004,01,02,08,10,0.80
2004,01,02,08,11,0.80
2004,01,02,08,12,0.80
2004,01,02,08,13,0.80
2004,01,02,08,14,0.90
2004,01,02,08,15,1.00
2004,01,02,08,16,1.00
2004,01,02,08,17,1.10
2004,01,02,08,18,1.20
2004,01,02,08,19,1.30
2004,01,02,08,20,1.30
2004,01,02,08,21,1.30
2004,01,02,08,22,1.40
2004,01,02,08,23,1.40
2004,01,02,08,24,1.50
2004,01,02,08,25,1.50
2004,01,02,08,26,1.50
2004,01,02,08,27,1.50
2004,01,02,08,28,1.60
2004,01,02,08,29,1.60
2004,01,02,08,30,1.60
2004,01,02,08,31,1.60
2004,01,02,08,32,1.70
2004,01,02,08,33,1.70
2004,01,02,08,34,1.80
2004,01,02,08,35,1.80
2004,01,02,08,36,1.80
2004,01,02,08,37,1.80
2004,01,02,08,38,1.80
2004,01,02,08,39,1.90
2004,01,02,08,40,2.00
2004,01,02,08,41,2.00
2004,01,02,08,42,2.00
2004,01,02,08,43,2.10
2004,01,02,08,44,2.10
2004,01,02,08,45,2.20
2004,01,02,08,46,2.20
2004,01,02,08,47,2.20
2004,01,02,08,48,2.20
2004,01,02,08,49,2.20
2004,01,02,08,50,2.20
2004,01,02,08,51,2.30
2004,01,02,08,52,2.30
2004,01,02,08,53,2.30
2004,01,02,08,54,2.30
2004,01,02,08,55,2.30
2004,01,02,08,56,2.40
2004,01,02,08,57,2.40
2004,01,02,08,58,2.50
2004,01,02,08,59,2.50
2004,01,02,09,00,2.50
2004,01,02,09,01,2.40
2004,01,02,09,02,2.40
2004,01,02,09,03,2.50
2004,01,02,09,04,2.50
2004,01,02,09,05,2.50
2004,01,02,09,06,2.50
2004,01,02,09,07,2.50
2004,01,02,09,08,2.60
2004,01,02,09,09,2.60
2004,01,02,09,10,2.60
2004,01,02,09,11,2.70
2004,01,02,09,12,2.70
2004,01,02,09,13,2.70
2004,01,02,09,14,2.70
2004,01,02,09,15,2.70
2004,01,02,09,16,2.70
2004,01,02,09,17,2.80
2004,01,02,09,18,2.80
2004,01,02,09,19,2.80
2004,01,02,09,20,2.90
2004,01,02,09,21,2.80
2004,01,02,09,22,2.90
2004,01,02,09,23,2.90
2004,01,02,09,24,2.90
2004,01,02,09,25,2.90
2004,01,02,09,26,2.90
2004,01,02,09,27,2.90
2004,01,02,09,28,2.90
2004,01,02,09,29,2.90
2004,01,02,09,30,2.80
2004,01,02,09,31,2.80
2004,01,02,09,32,2.80
2004,01,02,09,33,2.80
2004,01,02,09,34,2.70
2004,01,02,09,35,2.70
2004,01,02,09,36,2.70
2004,01,02,09,37,2.70
2004,01,02,09,38,2.70
2004,01,02,09,39,2.70
2004,01,02,09,40,2.70
2004,01,02,09,41,2.70
2004,01,02,09,42,2.70
2004,01,02,09,43,2.60
2004,01,02,09,44,2.60
2004,01,02,09,45,2.60
2004,01,02,09,46,2.70
2004,01,02,09,47,2.70
2004,01,02,09,48,2.70
2004,01,02,09,49,2.80
2004,01,02,09,50,2.80
2004,01,02,09,51,2.80
2004,01,02,09,52,2.80
2004,01,02,09,53,2.90
2004,01,02,09,54,2.90
2004,01,02,09,55,2.90
2004,01,02,09,56,2.90
2004,01,02,09,57,2.90
2004,01,02,09,58,2.90
2004,01,02,09,59,3.00
2004,01,02,10,00,3.10
2004,01,02,10,01,3.10
2004,01,02,10,02,3.10
2004,01,02,10,03,3.10
2004,01,02,10,04,3.10
2004,01,02,10,05,3.10
2004,01,02,10,06,3.10
2004,01,02,10,07,3.10
2004,01,02,10,08,3.10
2004,01,02,10,09,3.10
2004,01,02,10,10,3.10
2004,01,02,10,11,3.10
2004,01,02,10,12,3.00
2004,01,02,10,13,2.90
2004,01,02,10,14,2.90
2004,01,02,10,15,2.90
2004,01,02,10,16,2.90
2004,01,02,10,17,2.90
2004,01,02,10,18,2.90
2004,01,02,10,19,2.90
2004,01,02,10,20,2.90
2004,01,02,10,21,2.80
2004,01,02,10,22,2.90
2004,01,02,10,23,2.80
2004,01,02,10,24,2.80
2004,01,02,10,25,2.80
2004,01,02,10,26,2.80
2004,01,02,10,27,2.80
2004,01,02,10,28,2.80
2004,01,02,10,29,2.80
2004,01,02,10,30,2.80
2004,01,02,10,31,2.80
2004,01,02,10,32,2.80
2004,01,02,10,33,2.80
2004,01,02,10,34,2.80
2004,01,02,10,35,2.80
2004,01,02,10,36,2.80
2004,01,02,10,37,2.90
2004,01,02,10,38,2.90
2004,01,02,10,39,2.90
2004,01,02,10,40,2.90
2004,01,02,10,41,2.90
2004,01,02,10,42,2.90
2004,01,02,10,43,3.00
2004,01,02,10,44,3.10
2004,01,02,10,45,3.00
2004,01,02,10,46,2.90
2004,01,02,10,47,2.90
2004,01,02,10,48,2.90
2004,01,02,10,49,2.80
2004,01,02,10,50,2.80
2004,01,02,10,51,2.70
2004,01,02,10,52,2.70
2004,01,02,10,53,2.70
2004,01,02,10,54,2.80
2004,01,02,10,55,2.80
2004,01,02,10,56,2.80
2004,01,02,10,57,2.80
2004,01,02,10,58,2.80
2004,01,02,10,59,2.80
2004,01,02,11,00,2.80
2004,01,02,11,01,2.80
2004,01,02,11,02,2.80
2004,01,02,11,03,2.70
2004,01,02,11,04,2.70
2004,01,02,11,05,2.70
2004,01,02,11,06,2.70
2004,01,02,11,07,2.70
2004,01,02,11,08,2.70
2004,01,02,11,09,2.70
2004,01,02,11,10,2.70
2004,01,02,11,11,2.70
2004,01,02,11,12,2.70
2004,01,02,11,13,2.70
2004,01,02,11,14,2.70
2004,01,02,11,15,2.70
2004,01,02,11,16,2.70
2004,01,02,11,17,2.70
2004,01,02,11,18,2.70
2004,01,02,11,19,2.70
2004,01,02,11,20,2.70
2004,01,02,11,21,2.70
2004,01,02,11,22,2.70
2004,01,02,11,23,2.70
2004,01,02,11,24,2.70
2004,01,02,11,25,2.70
2004,01,02,11,26,2.70
2004,01,02,11,27,2.70
2004,01,02,11,28,2.70
2004,01,02,11,29,2.80
2004,01,02,11,30,2.80
2004,01,02,11,31,2.80
2004,01,02,11,32,2.80
2004,01,02,11,33,2.80
2004,01,02,11,34,2.80
2004,01,02,11,35,2.80
2004,01,02,11,36,2.80
2004,01,02,11,37,2.80
2004,01,02,11,38,2.80
2004,01,02,11,39,2.80
2004,01,02,11,40,2.80
2004,01,02,11,41,2.80
2004,01,02,11,42,2.70
2004,01,02,11,43,2.80
2004,01,02,11,44,2.80
2004,01,02,11,45,2.80
2004,01,02,11,46,2.80
2004,01,02,11,47,2.80
2004,01,02,11,48,2.80
2004,01,02,11,49,2.80
2004,01,02,11,50,2.80
2004,01,02,11,53,2.80
2004,01,02,11,54,2.80
2004,01,02,11,55,2.80
2004,01,02,11,56,2.80
2004,01,02,11,57,2.80
2004,01,02,11,58,2.80
2004,01,02,11,59,2.80
2004,01,02,12,00,2.80
2004,01,02,12,01,2.80
2004,01,02,12,02,2.80
2004,01,02,12,03,2.80
2004,01,02,12,04,2.80
2004,01,02,12,05,2.80
2004,01,02,12,06,2.80
2004,01,02,12,07,2.80
2004,01,02,12,08,2.90
2004,01,02,12,09,2.90
2004,01,02,12,10,2.90
2004,01,02,12,11,2.90
2004,01,02,12,12,2.90
2004,01,02,12,13,2.90
2004,01,02,12,14,2.80
2004,01,02,12,15,2.80
2004,01,02,12,16,2.80
2004,01,02,12,17,2.80
2004,01,02,12,18,2.80
2004,01,02,12,19,2.80
2004,01,02,12,20,2.80
2004,01,02,12,21,2.70
2004,01,02,12,22,2.70
2004,01,02,12,23,2.70
2004,01,02,12,24,2.70
2004,01,02,12,25,2.80
2004,01,02,12,26,2.80
2004,01,02,12,27,2.80
2004,01,02,12,28,2.80
2004,01,02,12,29,2.80
2004,01,02,12,30,2.80
2004,01,02,12,31,2.80
2004,01,02,12,32,2.80
2004,01,02,12,33,2.80
2004,01,02,12,34,2.80
2004,01,02,12,35,2.90
2004,01,02,12,36,2.90
2004,01,02,12,37,2.90
2004,01,02,12,38,2.90
2004,01,02,12,39,2.90
2004,01,02,12,40,2.90
2004,01,02,12,41,2.90
2004,01,02,12,42,2.90
2004,01,02,12,43,2.90
2004,01,02,12,44,2.90
2004,01,02,12,45,2.90
2004,01,02,12,46,3.00
2004,01,02,12,47,3.10
2004,01,02,12,48,3.10
2004,01,02,12,49,3.00
2004,01,02,12,50,2.90
2004,01,02,12,51,2.90
2004,01,02,12,52,3.00
2004,01,02,12,53,2.90
2004,01,02,12,54,2.90
2004,01,02,12,55,2.90
2004,01,02,12,56,2.90
2004,01,02,12,57,2.90
2004,01,02,12,58,2.90
2004,01,02,12,59,2.90
2004,01,02,13,00,2.90
2004,01,02,13,01,2.90
2004,01,02,13,02,2.90
2004,01,02,13,03,2.90
2004,01,02,13,04,2.90
2004,01,02,13,05,3.00
2004,01,02,13,06,3.00
2004,01,02,13,07,2.90
2004,01,02,13,08,2.90
2004,01,02,13,09,2.90
2004,01,02,13,10,3.00
2004,01,02,13,11,3.10
2004,01,02,13,12,3.10
2004,01,02,13,13,3.10
2004,01,02,13,14,3.10
2004,01,02,13,15,3.10
2004,01,02,13,16,3.20
2004,01,02,13,17,3.20
2004,01,02,13,18,3.10
2004,01,02,13,19,3.10
2004,01,02,13,20,3.10
2004,01,02,13,21,3.20
2004,01,02,13,22,3.20
2004,01,02,13,23,3.20
2004,01,02,13,24,3.20
2004,01,02,13,25,3.20
2004,01,02,13,26,3.20
2004,01,02,13,27,3.20
2004,01,02,13,28,3.20
2004,01,02,13,29,3.30
2004,01,02,13,30,3.30
2004,01,02,13,31,3.40
2004,01,02,13,32,3.40
2004,01,02,13,33,3.30
2004,01,02,13,34,3.30
2004,01,02,13,35,3.30
2004,01,02,13,36,3.30
2004,01,02,13,37,3.30
2004,01,02,13,38,3.30
2004,01,02,13,39,3.30
2004,01,02,13,40,3.30
2004,01,02,13,41,3.30
2004,01,02,13,42,3.30
2004,01,02,13,43,3.30
2004,01,02,13,44,3.30
2004,01,02,13,45,3.30
2004,01,02,13,46,3.30
2004,01,02,13,47,3.30
2004,01,02,13,48,3.30
2004,01,02,13,49,3.30
2004,01,02,13,50,3.30
2004,01,02,13,51,3.30
2004,01,02,13,52,3.30
2004,01,02,13,53,3.30
2004,01,02,13,54,3.30
2004,01,02,13,55,3.40
2004,01,02,13,56,3.40
2004,01,02,13,57,3.40
2004,01,02,13,58,3.40
2004,01,02,13,59,3.40
2004,01,02,14,00,3.40
2004,01,02,14,01,3.40
2004,01,02,14,02,3.30
2004,01,02,14,03,3.30
2004,01,02,14,04,3.30
2004,01,02,14,05,3.30
2004,01,02,14,06,3.30
2004,01,02,14,07,3.30
2004,01,02,14,08,3.30
2004,01,02,14,09,3.30
2004,01,02,14,10,3.30
2004,01,02,14,11,3.30
2004,01,02,14,12,3.30
2004,01,02,14,13,3.30
2004,01,02,14,14,3.30
2004,01,02,14,15,3.30
2004,01,02,14,16,3.30
2004,01,02,14,17,3.30
2004,01,02,14,18,3.20
2004,01,02,14,19,3.30
2004,01,02,14,20,3.30
2004,01,02,14,21,3.30
2004,01,02,14,22,3.30
2004,01,02,14,23,3.30
2004,01,02,14,24,3.30
2004,01,02,14,25,3.30
2004,01,02,14,26,3.30
2004,01,02,14,27,3.40
2004,01,02,14,28,3.40
2004,01,02,14,29,3.40
2004,01,02,14,30,3.40
2004,01,02,14,31,3.50
2004,01,02,14,32,3.50
2004,01,02,14,33,3.60
2004,01,02,14,34,3.60
2004,01,02,14,35,3.50
2004,01,02,14,36,3.50
2004,01,02,14,37,3.60
2004,01,02,14,38,3.60
2004,01,02,14,39,3.60
2004,01,02,14,40,3.60
2004,01,02,14,41,3.70
2004,01,02,14,42,3.80
2004,01,02,14,43,3.80
2004,01,02,14,44,3.90
2004,01,02,14,45,3.90
2004,01,02,14,46,3.90
2004,01,02,14,47,3.80
2004,01,02,14,48,3.70
2004,01,02,14,49,3.60
2004,01,02,14,50,3.60
2004,01,02,14,51,3.60
2004,01,02,14,52,3.60
2004,01,02,14,53,3.50
2004,01,02,14,54,3.50
2004,01,02,14,55,3.50
2004,01,02,14,56,3.50
2004,01,02,14,57,3.50
2004,01,02,14,58,3.50
2004,01,02,14,59,3.40
2004,01,02,15,00,3.40
2004,01,02,15,01,3.40
2004,01,02,15,02,3.40
2004,01,02,15,03,3.40
2004,01,02,15,04,3.40
2004,01,02,15,05,3.40
2004,01,02,15,06,3.40
2004,01,02,15,07,3.40
2004,01,02,15,08,3.40
2004,01,02,15,09,3.40
2004,01,02,15,10,3.40
2004,01,02,15,11,3.40
2004,01,02,15,12,3.40
2004,01,02,15,13,3.40
2004,01,02,15,14,3.50
2004,01,02,15,15,3.50
2004,01,02,15,16,3.50
2004,01,02,15,17,3.50
2004,01,02,15,18,3.50
2004,01,02,15,19,3.60
2004,01,02,15,20,3.60
2004,01,02,15,21,3.60
2004,01,02,15,22,3.60
2004,01,02,15,23,3.60
2004,01,02,15,24,3.60
2004,01,02,15,25,3.60
2004,01,02,15,26,3.60
2004,01,02,15,27,3.60
2004,01,02,15,28,3.60
2004,01,02,15,29,3.60
2004,01,02,15,30,3.60
2004,01,02,15,31,3.50
2004,01,02,15,32,3.50
2004,01,02,15,33,3.50
2004,01,02,15,34,3.50
2004,01,02,15,35,3.50
2004,01,02,15,36,3.50
2004,01,02,15,37,3.50
2004,01,02,15,38,3.50
2004,01,02,15,39,3.50
2004,01,02,15,40,3.50
2004,01,02,15,41,3.50
2004,01,02,15,42,3.60
2004,01,02,15,43,3.60
2004,01,02,15,44,3.60
2004,01,02,15,45,3.60
2004,01,02,15,46,3.60
2004,01,02,15,47,3.60
2004,01,02,15,48,3.70
2004,01,02,15,49,3.70
2004,01,02,15,50,3.70
2004,01,02,15,51,3.60
2004,01,02,15,52,3.70
2004,01,02,15,53,3.70
2004,01,02,15,54,3.70
2004,01,02,15,55,3.60
2004,01,02,15,56,3.60
2004,01,02,15,57,3.60
2004,01,02,15,58,3.60
2004,01,02,15,59,3.60
2004,01,02,16,00,3.60
2004,01,02,16,01,3.60
2004,01,02,16,02,3.60
2004,01,02,16,03,3.60
2004,01,02,16,04,3.60
2004,01,02,16,05,3.60
2004,01,02,16,06,3.60
2004,01,02,16,07,3.60
2004,01,02,16,08,3.70
2004,01,02,16,09,3.70
2004,01,02,16,10,3.70
2004,01,02,16,11,3.70
2004,01,02,16,12,3.70
2004,01,02,16,13,3.70
2004,01,02,16,14,3.80
2004,01,02,16,15,3.80
2004,01,02,16,16,3.70
2004,01,02,16,17,3.70
2004,01,02,16,18,3.70
2004,01,02,16,19,3.70
2004,01,02,16,20,3.70
2004,01,02,16,21,3.70
2004,01,02,16,22,3.70
2004,01,02,16,23,3.70
2004,01,02,16,24,3.70
2004,01,02,16,25,3.70
2004,01,02,16,26,3.70
2004,01,02,16,27,3.70
2004,01,02,16,28,3.70
2004,01,02,16,29,3.80
2004,01,02,16,30,3.80
2004,01,02,16,31,3.80
2004,01,02,16,32,3.80
2004,01,02,16,33,3.90
2004,01,02,16,34,3.90
2004,01,02,16,35,3.90
2004,01,02,16,36,3.90
2004,01,02,16,37,3.90
2004,01,02,16,38,3.90
2004,01,02,16,39,3.90
2004,01,02,16,40,3.90
2004,01,02,16,41,3.90
2004,01,02,16,42,3.90
2004,01,02,16,43,3.90
2004,01,02,16,44,3.90
2004,01,02,16,45,3.90
2004,01,02,16,46,3.80
2004,01,02,16,47,3.80
2004,01,02,16,48,3.80
2004,01,02,16,49,3.80
2004,01,02,16,50,3.70
2004,01,02,16,51,3.70
2004,01,02,16,52,3.70
2004,01,02,16,53,3.70
2004,01,02,16,54,3.70
2004,01,02,16,55,3.80
2004,01,02,16,56,3.80
2004,01,02,16,57,3.90
2004,01,02,16,58,3.90
2004,01,02,16,59,3.90
2004,01,02,17,00,4.00
2004,01,02,17,01,4.00
2004,01,02,17,02,4.00
2004,01,02,17,03,4.00
2004,01,02,17,04,4.10
2004,01,02,17,05,4.20
2004,01,02,17,06,4.20
2004,01,02,17,07,4.20
2004,01,02,17,08,4.20
2004,01,02,17,09,4.20
2004,01,02,17,10,4.20
2004,01,02,17,11,4.20
2004,01,02,17,12,4.10
2004,01,02,17,13,4.00
2004,01,02,17,14,3.90
2004,01,02,17,15,3.80
2004,01,02,17,16,3.80
2004,01,02,17,17,3.80
2004,01,02,17,18,3.80
2004,01,02,17,19,3.80
2004,01,02,17,20,3.80
2004,01,02,17,21,3.80
2004,01,02,17,22,3.90
2004,01,02,17,23,3.80
2004,01,02,17,24,3.80
2004,01,02,17,25,3.80
2004,01,02,17,26,3.80
2004,01,02,17,27,3.80
2004,01,02,17,28,3.80
2004,01,02,17,29,3.80
2004,01,02,17,30,3.80
2004,01,02,17,31,3.80
2004,01,02,17,32,3.80
2004,01,02,17,33,3.80
2004,01,02,17,34,3.80
2004,01,02,17,35,3.80
2004,01,02,17,36,3.80
2004,01,02,17,37,3.80
2004,01,02,17,38,3.70
2004,01,02,17,39,3.60
2004,01,02,17,40,3.50
2004,01,02,17,41,3.50
2004,01,02,17,42,3.50
2004,01,02,17,43,3.40
2004,01,02,17,44,3.40
2004,01,02,17,45,3.40
2004,01,02,17,46,3.40
2004,01,02,17,47,3.40
2004,01,02,17,48,3.40
2004,01,02,17,49,3.40
2004,01,02,17,50,3.40
2004,01,02,17,51,3.40
2004,01,02,17,52,3.40
2004,01,02,17,53,3.40
2004,01,02,17,54,3.40
2004,01,02,17,55,3.40
2004,01,02,17,56,3.40
2004,01,02,17,57,3.40
2004,01,02,17,58,3.40
2004,01,02,17,59,3.40
2004,01,02,18,00,3.40
2004,01,02,18,01,3.40
2004,01,02,18,02,3.40
2004,01,02,18,03,3.40
2004,01,02,18,04,3.40
2004,01,02,18,05,3.40
2004,01,02,18,06,3.00
2004,01,02,18,07,2.90
2004,01,02,18,08,2.90
2004,01,02,18,09,2.90
2004,01,02,18,10,2.90
2004,01,02,18,11,2.90
2004,01,02,18,12,2.90
2004,01,02,18,13,2.90
2004,01,02,18,14,2.90
2004,01,02,18,15,2.90
2004,01,02,18,16,2.90
2004,01,02,18,17,2.90
2004,01,02,18,18,2.90
2004,01,02,18,19,2.90
2004,01,02,18,20,2.90
2004,01,02,18,21,2.90
2004,01,02,18,22,2.90
2004,01,02,18,23,2.90
2004,01,02,18,24,2.90
2004,01,02,18,25,2.90
2004,01,02,18,26,2.90
2004,01,02,18,27,2.90
2004,01,02,18,28,2.90
2004,01,02,18,29,2.90
2004,01,02,18,30,2.90
2004,01,02,18,31,2.80
2004,01,02,18,32,2.80
2004,01,02,18,33,2.70
2004,01,02,18,34,2.70
2004,01,02,18,35,2.70
2004,01,02,18,36,2.70
2004,01,02,18,37,2.60
2004,01,02,18,38,2.60
2004,01,02,18,39,2.50
2004,01,02,18,40,2.50
2004,01,02,18,41,2.50
2004,01,02,18,42,2.50
2004,01,02,18,43,2.50
2004,01,02,18,44,2.40
2004,01,02,18,45,2.40
2004,01,02,18,46,2.40
2004,01,02,18,47,2.40
2004,01,02,18,48,2.40
2004,01,02,18,49,2.40
2004,01,02,18,50,2.40
2004,01,02,18,51,2.40
2004,01,02,18,52,2.30
2004,01,02,18,53,2.30
2004,01,02,18,54,2.30
2004,01,02,18,55,2.30
2004,01,02,18,56,2.20
2004,01,02,18,57,2.20
2004,01,02,18,58,2.20
2004,01,02,18,59,2.20
2004,01,02,19,00,2.20
2004,01,02,19,01,2.30
2004,01,02,19,02,2.30
2004,01,02,19,03,2.30
2004,01,02,19,04,2.30
2004,01,02,19,05,2.30
2004,01,02,19,06,2.30
2004,01,02,19,07,2.30
2004,01,02,19,08,2.30
2004,01,02,19,09,2.30
2004,01,02,19,10,2.30
2004,01,02,19,11,2.30
2004,01,02,19,12,2.30
2004,01,02,19,13,2.30
2004,01,02,19,14,2.30
2004,01,02,19,15,2.30
2004,01,02,19,16,2.30
2004,01,02,19,17,2.30
2004,01,02,19,18,2.30
2004,01,02,19,19,2.30
2004,01,02,19,20,2.30
2004,01,02,19,21,2.30
2004,01,02,19,22,2.30
2004,01,02,19,23,2.30
2004,01,02,19,24,2.30
2004,01,02,19,25,2.30
2004,01,02,19,26,2.30
2004,01,02,19,27,2.30
2004,01,02,19,28,2.30
2004,01,02,19,29,2.30
2004,01,02,19,30,2.30
2004,01,02,19,31,2.30
2004,01,02,19,32,2.30
2004,01,02,19,33,2.30
2004,01,02,19,34,2.30
2004,01,02,19,35,2.30
2004,01,02,19,36,2.30
2004,01,02,19,37,2.30
2004,01,02,19,38,2.20
2004,01,02,19,39,2.20
2004,01,02,19,40,2.20
2004,01,02,19,41,2.20
2004,01,02,19,42,2.20
2004,01,02,19,43,2.20
2004,01,02,19,44,2.20
2004,01,02,19,45,2.20
2004,01,02,19,46,2.20
2004,01,02,19,47,2.20
2004,01,02,19,48,2.20
2004,01,02,19,49,2.20
2004,01,02,19,50,2.20
2004,01,02,19,51,2.20
2004,01,02,19,52,2.20
2004,01,02,19,53,2.20
2004,01,02,19,54,2.20
2004,01,02,19,55,2.20
2004,01,02,19,56,2.20
2004,01,02,19,57,2.20
2004,01,02,19,58,2.20
2004,01,02,19,59,2.20
2004,01,02,20,00,2.20
2004,01,02,20,01,2.20
2004,01,02,20,02,2.20
2004,01,02,20,03,2.20
2004,01,02,20,04,2.20
2004,01,02,20,05,2.20
2004,01,02,20,06,2.20
2004,01,02,20,07,2.20
2004,01,02,20,08,2.20
2004,01,02,20,09,2.20
2004,01,02,20,10,2.20
2004,01,02,20,11,2.20
2004,01,02,20,12,2.20
2004,01,02,20,13,2.20
2004,01,02,20,14,2.20
2004,01,02,21,40,2.30
2004,01,02,21,41,2.30
2004,01,02,21,42,2.30
2004,01,02,21,43,2.30
2004,01,02,21,44,2.30
2004,01,02,21,45,2.30
2004,01,02,21,46,2.30
2004,01,02,21,47,2.30
2004,01,02,21,48,2.30
2004,01,02,21,49,2.30
2004,01,02,21,50,2.30
2004,01,02,21,51,2.30
2004,01,02,21,52,2.40
2004,01,02,21,53,2.40
2004,01,02,21,54,2.40
2004,01,02,21,55,2.40
2004,01,02,21,56,2.30
2004,01,02,21,57,2.30
2004,01,02,21,58,2.20
2004,01,02,21,59,2.20
2004,01,02,22,00,2.20
2004,01,02,22,01,2.20
2004,01,02,22,02,2.20
2004,01,02,22,03,2.20
2004,01,02,22,04,2.20
2004,01,02,22,05,2.20
2004,01,02,22,06,2.20
2004,01,02,22,07,2.20
2004,01,02,22,08,2.20
2004,01,02,22,09,2.20
2004,01,02,22,10,2.20
2004,01,02,22,11,2.20
2004,01,02,22,12,2.20
2004,01,02,22,13,2.20
2004,01,02,22,14,2.20
2004,01,02,22,15,2.20
2004,01,02,22,16,2.20
2004,01,02,22,17,2.20
2004,01,02,22,18,2.20
2004,01,02,22,19,2.20
2004,01,02,22,20,2.20
2004,01,02,22,21,2.20
2004,01,02,22,22,2.20
2004,01,02,22,23,2.20
2004,01,02,22,24,2.20
2004,01,02,22,25,2.20
2004,01,02,22,26,2.20
2004,01,02,22,27,2.20
2004,01,02,22,28,2.20
2004,01,02,22,29,2.20
2004,01,02,22,30,2.20
2004,01,02,22,31,2.20
2004,01,02,22,32,2.20
2004,01,02,22,33,2.20
2004,01,02,22,34,2.20
2004,01,02,22,35,2.20
2004,01,02,22,36,2.20
2004,01,02,22,37,2.20
2004,01,02,22,38,2.20
2004,01,02,22,39,2.20
2004,01,02,22,40,2.20
2004,01,02,22,41,2.20
2004,01,02,22,42,2.20
2004,01,02,22,43,2.20
2004,01,02,22,44,2.20
2004,01,02,22,45,2.20
2004,01,02,22,46,2.10
2004,01,02,22,47,2.10
2004,01,02,22,48,2.10
2004,01,02,22,49,2.10
2004,01,02,22,50,2.10
2004,01,02,22,51,2.10
2004,01,02,22,52,2.10
2004,01,02,22,53,2.10
2004,01,02,22,54,2.00
2004,01,02,22,55,2.00
2004,01,02,22,56,2.00
2004,01,02,22,57,1.90
2004,01,02,22,58,1.90
2004,01,02,22,59,1.80
2004,01,02,23,00,1.80
2004,01,02,23,01,1.80
2004,01,02,23,02,1.80
2004,01,02,23,03,1.80
2004,01,02,23,04,1.80
2004,01,02,23,05,1.80
2004,01,02,23,06,1.80
2004,01,02,23,07,1.80
2004,01,02,23,08,1.80
2004,01,02,23,09,1.80
2004,01,02,23,10,1.70
2004,01,02,23,11,1.70
2004,01,02,23,12,1.70
2004,01,02,23,13,1.60
2004,01,02,23,14,1.50
2004,01,02,23,15,1.50
2004,01,02,23,16,1.50
2004,01,02,23,17,1.40
2004,01,02,23,18,1.30
2004,01,02,23,19,1.30
2004,01,02,23,20,1.30
2004,01,02,23,21,1.30
2004,01,02,23,22,1.20
2004,01,02,23,23,1.20
2004,01,02,23,24,1.20
2004,01,02,23,25,1.10
2004,01,02,23,26,1.00
2004,01,02,23,27,1.00
2004,01,02,23,28,0.90
2004,01,02,23,29,0.80
2004,01,02,23,30,0.80
2004,01,02,23,31,0.80
2004,01,02,23,32,0.70
2004,01,02,23,33,0.60
2004,01,02,23,34,0.50
2004,01,02,23,35,0.30
2004,01,02,23,36,0.20
2004,01,02,23,37,0.10
2004,01,02,23,38,0.00
2004,01,02,23,39,-0.10
2004,01,02,23,40,-0.20
2004,01,02,23,41,-0.20
2004,01,02,23,42,-0.30
2004,01,02,23,43,-0.30
2004,01,02,23,44,-0.40
2004,01,02,23,45,-0.40
2004,01,02,23,46,-0.40
2004,01,02,23,47,-0.50
2004,01,02,23,48,-0.60
2004,01,02,23,49,-0.60
2004,01,02,23,50,-0.60
2004,01,02,23,51,-0.70
2004,01,02,23,52,-0.80
2004,01,02,23,53,-0.80
2004,01,02,23,54,-0.90
2004,01,02,23,55,-1.00
2004,01,02,23,56,-1.10
2004,01,02,23,57,-1.10
2004,01,02,23,58,-1.20
2004,01,02,23,59,-1.30
